| time (UTC) | temp F | wind direction | speed knots | gust knots | rain 1hr in | rain 24hr in | rain mn in | humidity % | barometer mb |
| 20260507185804 | 61 | 290 | 2.6 | 6.1 | 0.00 | 0.13 | 0.13 | 82 | 1011.1 |
| 20260507184803 | 62 | 298 | 4.3 | 8.7 | 0.00 | 0.13 | 0.13 | 79 | 1011.0 |
| 20260507184303 | 63 | 339 | 4.3 | 8.7 | 0.00 | 0.13 | 0.13 | 77 | 1011.0 |
| 20260507183804 | 63 | 338 | 5.2 | 10.4 | 0.00 | 0.13 | 0.13 | 75 | 1011.0 |
| 20260507183304 | 64 | 336 | 5.2 | 12.2 | 0.00 | 0.13 | 0.13 | 75 | 1011.0 |
| 20260507182803 | 65 | 340 | 5.2 | 11.3 | 0.00 | 0.13 | 0.13 | 73 | 1010.9 |
| 20260507182306 | 67 | 343 | 2.6 | 10.4 | 0.00 | 0.13 | 0.13 | 77 | 1010.7 |
| 20260507181803 | 67 | 23 | 4.3 | 7.8 | 0.00 | 0.13 | 0.13 | 76 | 1010.4 |
| 20260507181304 | 67 | 32 | 4.3 | 6.1 | 0.00 | 0.13 | 0.13 | 76 | 1010.3 |
| 20260507180803 | 67 | 42 | 4.3 | 7.0 | 0.00 | 0.13 | 0.13 | 76 | 1010.3 |
| 20260507180303 | 67 | 52 | 4.3 | 7.0 | 0.00 | 0.13 | 0.13 | 76 | 1010.3 |
| 20260507175803 | 67 | 48 | 4.3 | 7.8 | 0.00 | 0.13 | 0.13 | 76 | 1010.2 |
| 20260507175306 | 67 | 63 | 4.3 | 5.2 | 0.00 | 0.13 | 0.13 | 76 | 1010.2 |
| 20260507174305 | 68 | 61 | 2.6 | 6.1 | 0.00 | 0.13 | 0.13 | 76 | 1010.2 |
| 20260507173805 | 68 | 19 | 3.5 | 6.1 | 0.00 | 0.13 | 0.13 | 76 | 1010.1 |
| 20260507173305 | 68 | 29 | 1.7 | 6.1 | 0.00 | 0.13 | 0.13 | 75 | 1010.2 |
| 20260507172805 | 68 | 23 | 4.3 | 7.8 | 0.00 | 0.13 | 0.13 | 73 | 1010.2 |
| 20260507172307 | 68 | 34 | 3.5 | 5.2 | 0.00 | 0.13 | 0.13 | 73 | 1010.1 |
| 20260507171805 | 68 | 53 | 1.7 | 5.2 | 0.00 | 0.13 | 0.13 | 72 | 1010.0 |
| 20260507171305 | 68 | 24 | 1.7 | 5.2 | 0.00 | 0.13 | 0.13 | 72 | 1010.0 |
| 20260507170805 | 68 | 28 | 1.7 | 5.2 | 0.00 | 0.13 | 0.13 | 72 | 1010.0 |
| 20260507170305 | 68 | 51 | 0.9 | 2.6 | 0.00 | 0.13 | 0.13 | 74 | 1010.0 |
| 20260507165805 | 68 | 50 | 1.7 | 5.2 | 0.00 | 0.13 | 0.13 | 73 | 1009.9 |
| 20260507165306 | 68 | 52 | 2.6 | 4.3 | 0.00 | 0.13 | 0.13 | 72 | 1009.9 |
| 20260507164805 | 68 | 63 | 1.7 | 4.3 | 0.00 | 0.13 | 0.13 | 72 | 1009.9 |
| 20260507164305 | 68 | 35 | 2.6 | 4.3 | 0.00 | 0.13 | 0.13 | 73 | 1009.9 |
| 20260507163804 | 68 | 34 | 1.7 | 2.6 | 0.00 | 0.13 | 0.13 | 73 | 1009.9 |
| 20260507163305 | 68 | 34 | 2.6 | 4.3 | 0.00 | 0.13 | 0.13 | 74 | 1009.8 |
| 20260507162804 | 68 | 33 | 1.7 | 5.2 | 0.00 | 0.13 | 0.13 | 73 | 1009.8 |
| 20260507162307 | 68 | 19 | 2.6 | 5.2 | 0.00 | 0.13 | 0.13 | 72 | 1009.7 |
| 20260507161804 | 68 | 73 | 0.9 | 4.3 | 0.00 | 0.13 | 0.13 | 73 | 1009.7 |
| 20260507160805 | 68 | 59 | 0.9 | 2.6 | 0.00 | 0.13 | 0.13 | 73 | 1009.6 |
| 20260507160305 | 68 | 31 | 0.9 | 5.2 | 0.00 | 0.13 | 0.13 | 73 | 1009.5 |
| 20260507155805 | 68 | 22 | 3.5 | 6.1 | 0.00 | 0.13 | 0.13 | 72 | 1009.4 |
| 20260507155306 | 68 | 50 | 1.7 | 7.8 | 0.00 | 0.13 | 0.13 | 72 | 1009.3 |
| 20260507154804 | 68 | 63 | 4.3 | 7.8 | 0.00 | 0.13 | 0.13 | 71 | 1009.3 |
| 20260507154305 | 68 | 78 | 2.6 | 7.8 | 0.00 | 0.13 | 0.13 | 71 | 1009.2 |
| 20260507153804 | 69 | 64 | 2.6 | 6.1 | 0.00 | 0.13 | 0.13 | 72 | 1009.2 |
| 20260507153305 | 69 | 35 | 2.6 | 7.8 | 0.00 | 0.13 | 0.13 | 71 | 1009.2 |
| 20260507152805 | 68 | 45 | 2.6 | 7.0 | 0.00 | 0.13 | 0.13 | 71 | 1009.2 |
| 20260507152306 | 68 | 17 | 2.6 | 6.1 | 0.00 | 0.13 | 0.13 | 71 | 1009.2 |
| 20260507151804 | 68 | 69 | 1.7 | 6.1 | 0.00 | 0.13 | 0.13 | 70 | 1009.2 |
| 20260507150805 | 69 | 11 | 3.5 | 8.7 | 0.00 | 0.13 | 0.13 | 70 | 1009.3 |
| 20260507150305 | 69 | 53 | 1.7 | 7.0 | 0.00 | 0.13 | 0.13 | 71 | 1009.4 |
| 20260507145307 | 69 | 29 | 4.3 | 7.8 | 0.00 | 0.13 | 0.13 | 70 | 1009.6 |
| 20260507144804 | 69 | 63 | 3.5 | 10.4 | 0.00 | 0.13 | 0.13 | 70 | 1009.5 |
| 20260507144305 | 69 | 74 | 4.3 | 7.8 | 0.00 | 0.13 | 0.13 | 70 | 1009.6 |
| 20260507143804 | 69 | 45 | 2.6 | 8.7 | 0.00 | 0.13 | 0.13 | 68 | 1009.5 |
| 20260507143305 | 70 | 21 | 5.2 | 10.4 | 0.00 | 0.13 | 0.13 | 67 | 1009.4 |
| 20260507142804 | 70 | 81 | 5.2 | 7.8 | 0.00 | 0.13 | 0.13 | 66 | 1009.5 |
| 20260507142307 | 70 | 57 | 2.6 | 10.4 | 0.00 | 0.13 | 0.13 | 65 | 1009.6 |
| 20260507141804 | 70 | 49 | 4.3 | 10.4 | 0.00 | 0.13 | 0.13 | 63 | 1009.7 |
| 20260507141304 | 70 | 100 | 3.5 | 8.7 | 0.00 | 0.13 | 0.13 | 64 | 1009.7 |
| 20260507140805 | 70 | 84 | 1.7 | 7.0 | 0.00 | 0.13 | 0.13 | 67 | 1009.7 |
| 20260507135805 | 71 | 18 | 3.5 | 11.3 | 0.00 | 0.13 | 0.13 | 67 | 1009.7 |
| 20260507134804 | 69 | 72 | 4.3 | 8.7 | 0.00 | 0.13 | 0.13 | 71 | 1009.7 |
| 20260507133805 | 69 | 55 | 2.6 | 7.0 | 0.00 | 0.13 | 0.13 | 70 | 1009.9 |
| 20260507133304 | 69 | 89 | 3.5 | 12.2 | 0.00 | 0.13 | 0.13 | 69 | 1009.9 |
| 20260507132804 | 69 | 118 | 2.6 | 7.0 | 0.00 | 0.13 | 0.13 | 68 | 1009.9 |
| 20260507132307 | 69 | 108 | 4.3 | 10.4 | 0.00 | 0.13 | 0.13 | 69 | 1010.0 |
| 20260507131805 | 70 | 49 | 5.2 | 11.3 | 0.00 | 0.13 | 0.13 | 70 | 1009.9 |
| 20260507130804 | 69 | 40 | 3.5 | 8.7 | 0.00 | 0.13 | 0.13 | 72 | 1010.0 |
| 20260507125804 | 68 | 25 | 3.5 | 10.4 | 0.00 | 0.13 | 0.13 | 76 | 1010.2 |
| 20260507124805 | 68 | 57 | 2.6 | 10.4 | 0.00 | 0.13 | 0.13 | 75 | 1010.3 |
| 20260507124304 | 68 | 49 | 2.6 | 5.2 | 0.00 | 0.13 | 0.13 | 74 | 1010.3 |
| 20260507123805 | 68 | 64 | 1.7 | 7.0 | 0.00 | 0.13 | 0.13 | 75 | 1010.4 |
| 20260507123304 | 68 | 63 | 1.7 | 7.8 | 0.00 | 0.13 | 0.13 | 76 | 1010.5 |
| 20260507122804 | 68 | 63 | 3.5 | 8.7 | 0.00 | 0.13 | 0.13 | 76 | 1010.4 |
| 20260507122307 | 67 | 51 | 2.6 | 6.1 | 0.00 | 0.13 | 0.13 | 76 | 1010.4 |
| 20260507121805 | 68 | 27 | 2.6 | 6.1 | 0.00 | 0.13 | 0.13 | 77 | 1010.6 |
| 20260507120805 | 68 | 39 | 4.3 | 10.4 | 0.00 | 0.13 | 0.13 | 78 | 1010.6 |
| 20260507115804 | 67 | 43 | 3.5 | 7.8 | 0.00 | 0.13 | 0.13 | 79 | 1010.5 |
| 20260507115307 | 67 | 29 | 5.2 | 13.0 | 0.00 | 0.13 | 0.13 | 79 | 1010.5 |
| 20260507114804 | 67 | 30 | 4.3 | 11.3 | 0.00 | 0.13 | 0.13 | 79 | 1010.6 |
| 20260507113804 | 67 | 35 | 4.3 | 8.7 | 0.00 | 0.13 | 0.13 | 81 | 1010.8 |
| 20260507113304 | 67 | 33 | 4.3 | 8.7 | 0.00 | 0.13 | 0.13 | 81 | 1010.8 |
| 20260507112307 | 67 | 20 | 7.0 | 10.4 | 0.00 | 0.13 | 0.13 | 81 | 1011.0 |
| 20260507111304 | 67 | 8 | 5.2 | 11.3 | 0.01 | 0.13 | 0.13 | 81 | 1011.1 |
| 20260507110804 | 67 | 4 | 6.1 | 11.3 | 0.01 | 0.13 | 0.13 | 81 | 1011.2 |
| 20260507110304 | 67 | 19 | 4.3 | 7.8 | 0.01 | 0.13 | 0.13 | 81 | 1011.2 |
| 20260507105804 | 67 | 23 | 1.7 | 10.4 | 0.12 | 0.13 | 0.13 | 82 | 1011.3 |
| 20260507105306 | 67 | 24 | 3.5 | 6.1 | 0.13 | 0.13 | 0.13 | 81 | 1011.4 |
| 20260507104804 | 67 | 55 | 2.6 | 7.0 | 0.13 | 0.13 | 0.13 | 81 | 1011.3 |
| 20260507104304 | 66 | 40 | 2.6 | 6.1 | 0.13 | 0.13 | 0.13 | 81 | 1011.2 |
| 20260507103804 | 66 | 58 | 3.5 | 7.0 | 0.13 | 0.13 | 0.13 | 81 | 1011.1 |
| 20260507102306 | 66 | 75 | 1.7 | 4.3 | 0.13 | 0.13 | 0.13 | 82 | 1011.2 |
| 20260507101804 | 66 | 62 | 2.6 | 7.8 | 0.12 | 0.12 | 0.12 | 83 | 1011.2 |
| 20260507101305 | 66 | 32 | 5.2 | 10.4 | 0.12 | 0.12 | 0.12 | 81 | 1011.1 |
| 20260507100805 | 66 | 38 | 3.5 | 7.0 | 0.12 | 0.12 | 0.12 | 79 | 1011.0 |
| 20260507100305 | 67 | 27 | 4.3 | 10.4 | 0.12 | 0.12 | 0.12 | 74 | 1011.0 |
| 20260507095804 | 69 | 67 | 5.2 | 13.9 | 0.01 | 0.01 | 0.01 | 72 | 1011.3 |
| 20260507095306 | 69 | 117 | 4.3 | 8.7 | 0.00 | 0.00 | 0.00 | 70 | 1011.2 |
| 20260507094805 | 69 | 87 | 2.6 | 7.8 | 0.00 | 0.00 | 0.00 | 69 | 1011.2 |
| 20260507094304 | 70 | 72 | 1.7 | 2.6 | 0.00 | 0.00 | 0.00 | 69 | 1011.3 |
| 20260507093304 | 70 | 31 | 3.5 | 7.8 | 0.00 | 0.00 | 0.00 | 67 | 1011.3 |
| 20260507092805 | 69 | 105 | 4.3 | 6.1 | 0.00 | 0.00 | 0.00 | 67 | 1011.3 |
| 20260507091804 | 68 | 110 | 4.3 | 7.8 | 0.00 | 0.00 | 0.00 | 70 | 1011.4 |
| 20260507091304 | 68 | 79 | 3.5 | 7.0 | 0.00 | 0.00 | 0.00 | 70 | 1011.4 |
| 20260507090804 | 68 | 49 | 1.7 | 6.1 | 0.00 | 0.00 | 0.00 | 70 | 1011.3 |
| 20260507090304 | 67 | 28 | 2.6 | 4.3 | 0.00 | 0.00 | 0.00 | 70 | 1011.3 |
| 20260507085804 | 67 | 302 | 2.6 | 5.2 | 0.00 | 0.00 | 0.00 | 69 | 1011.3 |
| 20260507085306 | 67 | 26 | 3.5 | 6.1 | 0.00 | 0.00 | 0.00 | 69 | 1011.3 |
| 20260507084804 | 67 | 2 | 1.7 | 6.1 | 0.00 | 0.00 | 0.00 | 68 | 1011.3 |
| 20260507084304 | 67 | 346 | 2.6 | 10.4 | 0.00 | 0.00 | 0.00 | 67 | 1011.3 |
| 20260507083805 | 67 | 318 | 4.3 | 7.8 | 0.00 | 0.00 | 0.00 | 67 | 1011.3 |
| 20260507083304 | 67 | 347 | 4.3 | 7.8 | 0.00 | 0.00 | 0.00 | 67 | 1011.3 |
| 20260507082804 | 66 | 300 | 2.6 | 6.1 | 0.00 | 0.00 | 0.00 | 67 | 1011.3 |
| 20260507082306 | 66 | 337 | 1.7 | 5.2 | 0.00 | 0.00 | 0.00 | 68 | 1011.4 |
| 20260507081805 | 66 | 308 | 1.7 | 4.3 | 0.00 | 0.00 | 0.00 | 68 | 1011.4 |
| 20260507081304 | 66 | 335 | 4.3 | 7.0 | 0.00 | 0.00 | 0.00 | 68 | 1011.4 |
| 20260507080804 | 65 | 306 | 2.6 | 5.2 | 0.00 | 0.00 | 0.00 | 69 | 1011.4 |
| 20260507080304 | 65 | 351 | 1.7 | 4.3 | 0.00 | 0.00 | 0.00 | 68 | 1011.4 |
| 20260507075307 | 65 | 347 | 1.7 | 5.2 | 0.00 | 0.00 | 0.00 | 67 | 1011.5 |
| 20260507074805 | 65 | 339 | 2.6 | 5.2 | 0.00 | 0.00 | 0.00 | 67 | 1011.5 |
| 20260507073804 | 65 | 324 | 2.6 | 4.3 | 0.00 | 0.00 | 0.00 | 67 | 1011.5 |
| 20260507072804 | 64 | 325 | 2.6 | 6.1 | 0.00 | 0.00 | 0.00 | 67 | 1011.4 |
| 20260507072306 | 64 | 325 | 2.6 | 5.2 | 0.00 | 0.00 | 0.00 | 68 | 1011.4 |
| 20260507071805 | 64 | 336 | 4.3 | 6.1 | 0.00 | 0.00 | 0.00 | 68 | 1011.4 |
| 20260507071304 | 64 | 263 | 1.7 | 4.3 | 0.00 | 0.00 | 0.00 | 70 | 1011.4 |
| 20260507070805 | 63 | 259 | 2.6 | 5.2 | 0.00 | 0.00 | 0.00 | 70 | 1011.4 |
| 20260507070304 | 63 | 243 | 1.7 | 4.3 | 0.00 | 0.00 | 0.00 | 72 | 1011.3 |
| 20260507065306 | 62 | 246 | 1.7 | 2.6 | 0.00 | 0.00 | 0.00 | 75 | 1011.3 |
| 20260507064804 | 62 | 246 | 1.7 | 2.6 | 0.00 | 0.00 | 0.00 | 76 | 1011.2 |
| 20260507064304 | 62 | 246 | 1.7 | 2.6 | 0.00 | 0.00 | 0.00 | 75 | 1011.2 |
| 20260507063805 | 62 | 246 | 1.7 | 2.6 | 0.00 | 0.00 | 0.00 | 76 | 1011.3 |
| 20260507062306 | 60 | 246 | 2.6 | 4.3 | 0.00 | 0.00 | 0.00 | 80 | 1011.2 |
| 20260507061304 | 60 | 246 | 0.0 | 2.6 | 0.00 | 0.00 | 0.00 | 81 | 1011.1 |
| 20260507060805 | 59 | 271 | 0.0 | 2.6 | 0.00 | 0.00 | 0.00 | 82 | 1011.0 |
| 20260507060305 | 59 | 246 | 0.0 | 0.9 | 0.00 | 0.00 | 0.00 | 82 | 1010.9 |
| 20260507055804 | 59 | 245 | 0.0 | 2.6 | 0.00 | 0.00 | 0.00 | 82 | 1010.8 |
| 20260507055306 | 59 | 245 | 1.7 | 2.6 | 0.00 | 0.00 | 0.00 | 82 | 1010.7 |
| 20260507054804 | 58 | 245 | 0.9 | 2.6 | 0.00 | 0.00 | 0.00 | 82 | 1010.7 |
| 20260507054304 | 58 | 246 | 2.6 | 4.3 | 0.00 | 0.00 | 0.00 | 81 | 1010.6 |
| 20260507053804 | 59 | 245 | 2.6 | 4.3 | 0.00 | 0.00 | 0.00 | 81 | 1010.6 |
| 20260507053304 | 59 | 220 | 1.7 | 2.6 | 0.00 | 0.00 | 0.00 | 80 | 1010.6 |
| 20260507052804 | 59 | 220 | 1.7 | 2.6 | 0.00 | 0.00 | 0.00 | 80 | 1010.6 |
| 20260507052306 | 59 | 220 | 1.7 | 2.6 | 0.00 | 0.00 | 0.00 | 80 | 1010.6 |
| 20260507051304 | 58 | 220 | 0.0 | 0.0 | 0.00 | 0.00 | 0.00 | 81 | 1010.7 |
| 20260507050804 | 58 | 220 | 0.0 | 0.0 | 0.00 | 0.00 | 0.00 | 81 | 1010.7 |
| 20260507045804 | 58 | 220 | 0.0 | 0.0 | 0.00 | 0.00 | 0.00 | 82 | 1010.7 |
| 20260507045306 | 58 | 220 | 0.0 | 0.0 | 0.00 | 0.00 | 0.00 | 82 | 1010.6 |
| 20260507044804 | 57 | 220 | 0.0 | 0.0 | 0.00 | 0.00 | 0.00 | 82 | 1010.6 |
| 20260507044304 | 57 | 220 | 0.0 | 1.7 | 0.00 | 0.00 | 0.00 | 81 | 1010.5 |
| 20260507043804 | 58 | 220 | 0.0 | 0.0 | 0.00 | 0.00 | 0.00 | 82 | 1010.5 |
| 20260507043304 | 58 | 220 | 0.0 | 0.9 | 0.00 | 0.00 | 0.00 | 81 | 1010.5 |
| 20260507042804 | 58 | 220 | 0.0 | 1.7 | 0.00 | 0.00 | 0.00 | 81 | 1010.4 |
| 20260507041804 | 58 | 220 | 0.9 | 1.7 | 0.00 | 0.00 | 0.00 | 81 | 1010.2 |
| 20260507040304 | 59 | 220 | 0.0 | 0.0 | 0.00 | 0.00 | 0.00 | 80 | 1010.1 |
| 20260507035805 | 59 | 220 | 0.0 | 0.0 | 0.00 | 0.00 | 0.00 | 80 | 1010.1 |
| 20260507035306 | 59 | 220 | 0.0 | 0.0 | 0.00 | 0.00 | 0.00 | 80 | 1010.2 |
| 20260507034804 | 59 | 220 | 0.9 | 2.6 | 0.00 | 0.00 | 0.00 | 80 | 1010.1 |
| 20260507034305 | 59 | 220 | 0.0 | 0.0 | 0.00 | 0.00 | 0.00 | 80 | 1010.1 |
| 20260507033305 | 59 | 220 | 0.0 | 0.0 | 0.00 | 0.00 | 0.00 | 80 | 1010.3 |
| 20260507032306 | 58 | 220 | 0.0 | 0.9 | 0.00 | 0.00 | 0.00 | 80 | 1010.4 |
| 20260507031804 | 59 | 220 | 0.0 | 0.9 | 0.00 | 0.00 | 0.00 | 80 | 1010.4 |
| 20260507030804 | 59 | 220 | 0.0 | 0.0 | 0.00 | 0.00 | 0.00 | 80 | 1010.5 |
| 20260507030304 | 59 | 220 | 0.0 | 0.9 | 0.00 | 0.00 | 0.00 | 80 | 1010.5 |
| 20260507025804 | 59 | 220 | 0.9 | 2.6 | 0.00 | 0.00 | 0.00 | 80 | 1010.5 |
| 20260507025306 | 59 | 220 | 0.0 | 1.7 | 0.00 | 0.00 | 0.00 | 81 | 1010.5 |
| 20260507024804 | 59 | 220 | 0.0 | 1.7 | 0.00 | 0.00 | 0.00 | 80 | 1010.5 |
| 20260507024304 | 59 | 220 | 0.9 | 2.6 | 0.00 | 0.00 | 0.00 | 80 | 1010.6 |
| 20260507023804 | 59 | 220 | 0.0 | 0.9 | 0.00 | 0.00 | 0.00 | 81 | 1010.5 |
| 20260507023304 | 59 | 220 | 0.0 | 1.7 | 0.00 | 0.00 | 0.00 | 80 | 1010.6 |
| 20260507022306 | 59 | 220 | 1.7 | 2.6 | 0.00 | 0.00 | 0.00 | 80 | 1010.6 |
| 20260507021804 | 59 | 220 | 0.9 | 2.6 | 0.00 | 0.00 | 0.00 | 80 | 1010.6 |
| 20260507021304 | 59 | 220 | 0.0 | 1.7 | 0.00 | 0.00 | 0.00 | 80 | 1010.6 |
| 20260507020804 | 59 | 220 | 0.0 | 1.7 | 0.00 | 0.00 | 0.00 | 81 | 1010.7 |
| 20260507020304 | 59 | 220 | 0.9 | 1.7 | 0.00 | 0.00 | 0.00 | 81 | 1010.7 |
| 20260507015804 | 58 | 220 | 0.9 | 2.6 | 0.00 | 0.00 | 0.00 | 81 | 1010.7 |
| 20260507015306 | 59 | 220 | 0.0 | 2.6 | 0.00 | 0.00 | 0.00 | 80 | 1010.7 |
| 20260507014803 | 59 | 220 | 0.9 | 2.6 | 0.00 | 0.00 | 0.00 | 80 | 1010.7 |
| 20260507013804 | 59 | 220 | 1.7 | 2.6 | 0.00 | 0.00 | 0.00 | 80 | 1010.6 |
| 20260507013304 | 59 | 220 | 0.9 | 2.6 | 0.00 | 0.00 | 0.00 | 80 | 1010.6 |
| 20260507012805 | 59 | 220 | 1.7 | 6.1 | 0.00 | 0.00 | 0.00 | 80 | 1010.6 |
| 20260507012306 | 59 | 201 | 2.6 | 4.3 | 0.00 | 0.00 | 0.00 | 80 | 1010.7 |
| 20260507011804 | 59 | 108 | 1.7 | 4.3 | 0.00 | 0.00 | 0.00 | 80 | 1010.6 |
| 20260507010304 | 60 | 108 | 1.7 | 2.6 | 0.00 | 0.00 | 0.00 | 79 | 1010.7 |
| 20260507005804 | 60 | 107 | 0.9 | 1.7 | 0.00 | 0.00 | 0.00 | 78 | 1010.7 |
| 20260507004803 | 60 | 107 | 0.9 | 1.7 | 0.00 | 0.00 | 0.00 | 77 | 1010.7 |
| 20260507004304 | 61 | 108 | 0.9 | 2.6 | 0.00 | 0.00 | 0.00 | 77 | 1010.8 |
| 20260507003804 | 61 | 107 | 0.9 | 2.6 | 0.00 | 0.00 | 0.00 | 77 | 1010.8 |
| 20260507003304 | 61 | 108 | 0.9 | 4.3 | 0.00 | 0.00 | 0.00 | 76 | 1010.9 |
| 20260507002804 | 61 | 108 | 1.7 | 4.3 | 0.00 | 0.00 | 0.00 | 76 | 1010.9 |
| 20260507001803 | 61 | 107 | 0.0 | 1.7 | 0.00 | 0.00 | 0.00 | 76 | 1010.8 |
| 20260507000804 | 62 | 107 | 0.0 | 1.7 | 0.00 | 0.00 | 0.00 | 75 | 1010.9 |
| 20260507000306 | 62 | 107 | 1.7 | 2.6 | 0.00 | 0.00 | 0.00 | 74 | 1010.9 |
| 20260506235804 | 62 | 108 | 0.9 | 1.7 | 0.00 | 0.00 | 0.00 | 74 | 1010.9 |
| 20260506235306 | 62 | 107 | 0.9 | 1.7 | 0.00 | 0.00 | 0.00 | 74 | 1010.9 |
| 20260506234804 | 62 | 108 | 0.9 | 1.7 | 0.00 | 0.00 | 0.00 | 74 | 1011.0 |
| 20260506234303 | 62 | 107 | 0.0 | 1.7 | 0.00 | 0.00 | 0.00 | 74 | 1011.1 |
| 20260506233804 | 63 | 107 | 1.7 | 2.6 | 0.00 | 0.00 | 0.00 | 73 | 1011.1 |
| 20260506233304 | 63 | 107 | 0.0 | 0.9 | 0.00 | 0.00 | 0.00 | 71 | 1011.1 |
| 20260506232804 | 64 | 107 | 0.0 | 0.0 | 0.00 | 0.00 | 0.00 | 71 | 1011.2 |
| 20260506232306 | 64 | 107 | 0.0 | 0.0 | 0.00 | 0.00 | 0.00 | 71 | 1011.1 |
| 20260506231804 | 64 | 107 | 0.0 | 0.0 | 0.00 | 0.00 | 0.00 | 71 | 1011.1 |
| 20260506231305 | 64 | 107 | 0.0 | 0.0 | 0.00 | 0.00 | 0.00 | 71 | 1011.1 |
| 20260506230304 | 64 | 107 | 0.0 | 0.0 | 0.00 | 0.00 | 0.00 | 71 | 1011.3 |
| 20260506225803 | 64 | 107 | 0.0 | 0.0 | 0.00 | 0.00 | 0.00 | 71 | 1011.3 |
| 20260506224803 | 64 | 107 | 0.0 | 0.0 | 0.00 | 0.00 | 0.00 | 71 | 1011.3 |
| 20260506224304 | 64 | 107 | 0.0 | 0.0 | 0.00 | 0.00 | 0.00 | 71 | 1011.3 |
| 20260506223804 | 64 | 107 | 0.0 | 0.0 | 0.00 | 0.00 | 0.00 | 71 | 1011.3 |
| 20260506223304 | 64 | 107 | 0.0 | 0.0 | 0.00 | 0.00 | 0.00 | 71 | 1011.3 |
| 20260506222804 | 64 | 107 | 0.0 | 0.0 | 0.00 | 0.00 | 0.00 | 71 | 1011.4 |
| 20260506221804 | 64 | 107 | 0.0 | 0.0 | 0.00 | 0.00 | 0.00 | 70 | 1011.3 |
| 20260506221304 | 64 | 107 | 0.0 | 0.0 | 0.00 | 0.00 | 0.00 | 69 | 1011.3 |
| 20260506220818 | 65 | 107 | 0.0 | 0.0 | 0.00 | 0.00 | 0.00 | 68 | 1011.3 |
| 20260506215306 | 65 | 107 | 1.7 | 2.6 | 0.00 | 0.00 | 0.00 | 68 | 1011.3 |
| 20260506214804 | 65 | 107 | 0.0 | 4.3 | 0.00 | 0.00 | 0.00 | 68 | 1011.3 |
| 20260506214304 | 65 | 108 | 0.9 | 1.7 | 0.00 | 0.00 | 0.00 | 68 | 1011.4 |
| 20260506213804 | 65 | 108 | 1.7 | 2.6 | 0.00 | 0.00 | 0.00 | 68 | 1011.4 |
| 20260506213304 | 65 | 107 | 1.7 | 4.3 | 0.00 | 0.00 | 0.00 | 68 | 1011.4 |
| 20260506212804 | 65 | 94 | 1.7 | 5.2 | 0.00 | 0.00 | 0.00 | 67 | 1011.3 |
| 20260506212306 | 65 | 96 | 0.9 | 4.3 | 0.00 | 0.00 | 0.00 | 68 | 1011.3 |
| 20260506210804 | 65 | 95 | 2.6 | 4.3 | 0.00 | 0.00 | 0.00 | 67 | 1011.1 |
| 20260506210303 | 65 | 96 | 0.9 | 5.2 | 0.00 | 0.00 | 0.00 | 67 | 1011.0 |
| 20260506205804 | 65 | 96 | 3.5 | 6.1 | 0.00 | 0.00 | 0.00 | 67 | 1010.9 |
| 20260506205306 | 65 | 109 | 2.6 | 6.1 | 0.00 | 0.00 | 0.00 | 67 | 1010.9 |
| 20260506204803 | 65 | 89 | 3.5 | 6.1 | 0.00 | 0.00 | 0.00 | 67 | 1010.9 |
| 20260506203804 | 65 | 89 | 1.7 | 6.1 | 0.00 | 0.00 | 0.00 | 67 | 1010.7 |
| 20260506203303 | 65 | 107 | 4.3 | 7.0 | 0.00 | 0.00 | 0.00 | 67 | 1010.7 |
| 20260506202804 | 65 | 102 | 3.5 | 7.0 | 0.00 | 0.00 | 0.00 | 67 | 1010.7 |
| 20260506202306 | 65 | 89 | 3.5 | 5.2 | 0.00 | 0.00 | 0.00 | 67 | 1010.7 |
| 20260506201803 | 65 | 112 | 1.7 | 6.1 | 0.00 | 0.00 | 0.00 | 68 | 1010.6 |
| 20260506201304 | 65 | 83 | 4.3 | 6.1 | 0.00 | 0.00 | 0.00 | 67 | 1010.6 |
| 20260506200804 | 65 | 100 | 4.3 | 7.0 | 0.00 | 0.00 | 0.00 | 67 | 1010.5 |
| 20260506200304 | 66 | 103 | 2.6 | 5.2 | 0.00 | 0.00 | 0.00 | 68 | 1010.4 |
| 20260506195803 | 66 | 114 | 2.6 | 5.2 | 0.00 | 0.00 | 0.00 | 68 | 1010.3 |
| 20260506195306 | 66 | 99 | 2.6 | 7.0 | 0.00 | 0.00 | 0.00 | 68 | 1010.3 |
| 20260506194804 | 66 | 96 | 3.5 | 6.1 | 0.00 | 0.00 | 0.00 | 68 | 1010.2 |
| 20260506194303 | 66 | 115 | 3.5 | 5.2 | 0.00 | 0.00 | 0.00 | 67 | 1010.2 |
| 20260506193304 | 66 | 100 | 4.3 | 6.1 | 0.00 | 0.00 | 0.00 | 66 | 1010.1 |
| 20260506192803 | 66 | 107 | 3.5 | 6.1 | 0.00 | 0.00 | 0.00 | 66 | 1009.9 |
| 20260506192306 | 67 | 87 | 4.3 | 7.8 | 0.00 | 0.00 | 0.00 | 66 | 1010.0 |
| 20260506191804 | 67 | 117 | 2.6 | 5.2 | 0.00 | 0.00 | 0.00 | 66 | 1009.9 |
| 20260506191303 | 67 | 117 | 3.5 | 5.2 | 0.00 | 0.00 | 0.00 | 66 | 1009.8 |
| 20260506190804 | 67 | 125 | 2.6 | 7.0 | 0.00 | 0.00 | 0.00 | 66 | 1009.8 |
| 20260506190303 | 67 | 135 | 2.6 | 6.1 | 0.00 | 0.00 | 0.00 | 66 | 1009.8 |